When you browse on this site, cookies collect data to enhance your experience and personalize the content and advertising you see.
Visit our Privacy Policy to learn more. By continuing to use the site, you agree to this use of cookies and data.
  • In Czech Republic
  • List of Countries
  • For 7 days
  • Water Temperature
  • Satellite Maps
  • Weather Map
  • Weather Widgets
  • user-avatar
    Login

    Hourly Weather Ghent

    Today, 22 January, Tuesday

    Time Temperature Precipitation Wind Pressure Humidity
    00:00 -4°C° 0 mm 4 mps 761 mmHg 59%
    01:00 -4°C° 0 mm 5 mps 760 mmHg 57%
    02:00 -4°C° 0 mm 5 mps 759 mmHg 56%
    03:00 -4°C° 0 mm 6 mps 757 mmHg 54%
    04:00 -4°C° 0 mm 6 mps 756 mmHg 53%
    05:00 -4°C° 0 mm 7 mps 755 mmHg 52%
    06:00 -4°C° 0 mm 7 mps 754 mmHg 51%
    07:00 -4°C° 0.4 mm 7 mps 754 mmHg 62%
    08:00 -4°C° 0.4 mm 7 mps 753 mmHg 74%
    09:00 -4°C° 0.4 mm 7 mps 752 mmHg 85%
    10:00 -4°C° 0.6 mm 7 mps 752 mmHg 87%
    11:00 -4°C° 0.6 mm 7 mps 752 mmHg 89%
    12:00 -3°C° 0.6 mm 7 mps 751 mmHg 91%
    13:00 -3°C° 0.1 mm 6 mps 751 mmHg 92%
    14:00 -2°C° 0.1 mm 5 mps 750 mmHg 93%
    15:00 -1°C° 0.1 mm 4 mps 750 mmHg 94%
    16:00 -2°C° 0 mm 4 mps 750 mmHg 94%
    17:00 -2°C° 0 mm 4 mps 750 mmHg 95%
    18:00 -1°C° 0 mm 3 mps 749 mmHg 96%
    19:00 -2°C° 0 mm 3 mps 749 mmHg 96%
    20:00 -2°C° 0 mm 3 mps 749 mmHg 95%
    21:00 -2°C° 0 mm 3 mps 749 mmHg 95%
    22:00 -2°C° 0 mm 3 mps 748 mmHg 95%
    23:00 -2°C° 0 mm 3 mps 748 mmHg 95%

    Tomorrow, 23 January, Wednesday

    Time Temperature Precipitation Wind Pressure Humidity
    00:00 -4°C° 0 mm 3 mps 747 mmHg 95%
    01:00 -2°C° 0.1 mm 3 mps 747 mmHg 95%
    02:00 -2°C° 0.1 mm 3 mps 747 mmHg 95%
    03:00 -2°C° 0.1 mm 3 mps 746 mmHg 95%
    04:00 -2°C° 0.5 mm 3 mps 746 mmHg 95%
    05:00 -2°C° 0.5 mm 3 mps 746 mmHg 95%
    06:00 -2°C° 0.5 mm 3 mps 746 mmHg 95%
    07:00 -2°C° 0.2 mm 3 mps 746 mmHg 94%
    08:00 -2°C° 0.2 mm 3 mps 747 mmHg 93%
    09:00 -2°C° 0.2 mm 3 mps 747 mmHg 92%
    10:00 -2°C° 0 mm 3 mps 748 mmHg 91%
    11:00 -1°C° 0 mm 3 mps 748 mmHg 91%
    12:00 -1°C° 0 mm 3 mps 748 mmHg 90%
    13:00 -1°C° 0 mm 3 mps 749 mmHg 91%
    14:00 -1°C° 0 mm 3 mps 750 mmHg 91%
    15:00 -1°C° 0 mm 3 mps 750 mmHg 92%
    16:00 -1°C° 0 mm 2 mps 751 mmHg 92%
    17:00 -1°C° 0 mm 2 mps 752 mmHg 92%
    18:00 -2°C° 0 mm 2 mps 753 mmHg 92%
    19:00 -1°C° 0 mm 2 mps 753 mmHg 92%
    20:00 -1°C° 0 mm 2 mps 754 mmHg 91%
    21:00 +1°C° 0 mm 1 mps 755 mmHg 91%
    22:00 +1°C° 0 mm 1 mps 755 mmHg 91%
    23:00 +1°C° 0 mm 1 mps 755 mmHg 91%

    Day after tomorrow, 24 January, Thursday

    Time Temperature Precipitation Wind Pressure Humidity
    00:00 +1°C° 0 mm 1 mps 756 mmHg 91%
    01:00 +1°C° 0 mm 1 mps 756 mmHg 91%
    02:00 +2°C° 0 mm 1 mps 757 mmHg 91%
    03:00 +2°C° 0 mm 1 mps 757 mmHg 91%
    04:00 +2°C° 0 mm 1 mps 758 mmHg 91%
    05:00 +2°C° 0 mm 1 mps 758 mmHg 91%
    06:00 +1°C° 0 mm 0 mps 758 mmHg 91%
    07:00 +2°C° 0 mm 1 mps 758 mmHg 92%
    08:00 +2°C° 0 mm 1 mps 759 mmHg 93%
    09:00 +2°C° 0 mm 1 mps 759 mmHg 93%
    10:00 +2°C° 0 mm 1 mps 760 mmHg 93%
    11:00 +3°C° 0 mm 1 mps 760 mmHg 94%
    12:00 +3°C° 0 mm 1 mps 760 mmHg 94%
    13:00 +2°C° 0 mm 2 mps 760 mmHg 92%
    14:00 +2°C° 0 mm 2 mps 760 mmHg 90%
    15:00 +2°C° 0 mm 2 mps 761 mmHg 88%
    16:00 +2°C° 0 mm 2 mps 761 mmHg 88%
    17:00 +1°C° 0 mm 2 mps 761 mmHg 87%
    18:00 +1°C° 0 mm 2 mps 762 mmHg 86%
    19:00 +1°C° 0 mm 2 mps 762 mmHg 87%
    20:00 -1°C° 0 mm 2 mps 762 mmHg 88%
    21:00 -1°C° 0 mm 2 mps 762 mmHg 89%
    22:00 -1°C° 0 mm 2 mps 762 mmHg 89%
    23:00 -1°C° 0 mm 2 mps 762 mmHg 90%

    25 January, Friday

    Time Temperature Precipitation Wind Pressure Humidity
    00:00 -2°C° 0 mm 2 mps 762 mmHg 90%
    01:00 -2°C° 0 mm 2 mps 762 mmHg 90%
    02:00 -2°C° 0 mm 3 mps 762 mmHg 90%
    03:00 -2°C° 0 mm 3 mps 762 mmHg 90%
    04:00 -2°C° 0 mm 3 mps 762 mmHg 90%
    05:00 -2°C° 0 mm 3 mps 762 mmHg 90%
    06:00 -1°C° 0 mm 3 mps 761 mmHg 91%
    07:00 -1°C° 0 mm 3 mps 761 mmHg 91%
    08:00 -1°C° 0 mm 3 mps 762 mmHg 91%
    09:00 0°C° 0 mm 3 mps 762 mmHg 91%
    10:00 -1°C° 0 mm 4 mps 761 mmHg 91%
    11:00 0°C° 0 mm 4 mps 761 mmHg 91%
    12:00 0°C° 0 mm 5 mps 761 mmHg 92%
    13:00 0°C° 0 mm 5 mps 761 mmHg 92%
    14:00 0°C° 0 mm 5 mps 760 mmHg 93%
    15:00 0°C° 0 mm 5 mps 760 mmHg 94%
    16:00 0°C° 0.1 mm 5 mps 760 mmHg 94%
    17:00 0°C° 0.1 mm 5 mps 760 mmHg 95%
    18:00 -1°C° 0.1 mm 5 mps 759 mmHg 96%
    19:00 -1°C° 0.1 mm 5 mps 759 mmHg 96%
    20:00 0°C° 0.1 mm 5 mps 759 mmHg 96%
    21:00 0°C° 0.1 mm 5 mps 759 mmHg 96%
    22:00 0°C° 0 mm 5 mps 758 mmHg 96%
    23:00 0°C° 0 mm 5 mps 757 mmHg 96%

    26 January, Saturday

    Time Temperature Precipitation Wind Pressure Humidity
    00:00 0°C° 0 mm 5 mps 757 mmHg 96%
    01:00 +1°C° 0 mm 5 mps 756 mmHg 96%
    02:00 +1°C° 0 mm 6 mps 755 mmHg 96%
    03:00 +1°C° 0 mm 6 mps 754 mmHg 96%
    04:00 +1°C° 0.5 mm 6 mps 753 mmHg 96%
    05:00 +2°C° 0.5 mm 7 mps 752 mmHg 95%
    06:00 +2°C° 0.5 mm 7 mps 751 mmHg 95%
    07:00 +2°C° 0.9 mm 7 mps 750 mmHg 94%
    08:00 +2°C° 0.9 mm 7 mps 750 mmHg 94%
    09:00 +2°C° 0.9 mm 7 mps 749 mmHg 93%
    10:00 +2°C° 0.3 mm 7 mps 748 mmHg 93%
    11:00 +2°C° 0.3 mm 7 mps 748 mmHg 93%
    12:00 +2°C° 0.3 mm 6 mps 747 mmHg 93%
    13:00 +2°C° 1 mm 5 mps 747 mmHg 94%
    14:00 +3°C° 1 mm 4 mps 747 mmHg 95%
    15:00 +3°C° 1 mm 3 mps 746 mmHg 95%
    16:00 +3°C° 1.1 mm 4 mps 747 mmHg 93%
    17:00 +2°C° 1.1 mm 5 mps 747 mmHg 90%
    18:00 +2°C° 1.1 mm 6 mps 747 mmHg 87%
    19:00 +2°C° 1.4 mm 6 mps 747 mmHg 86%
    20:00 +2°C° 1.4 mm 6 mps 748 mmHg 85%
    21:00 +2°C° 1.4 mm 6 mps 748 mmHg 84%
    22:00 +2°C° 0.7 mm 6 mps 749 mmHg 82%
    23:00 +2°C° 0.7 mm 6 mps 749 mmHg 81%

    27 January, Sunday

    Time Temperature Precipitation Wind Pressure Humidity
    00:00 +2°C° 0.7 mm 6 mps 749 mmHg 80%
    01:00 +2°C° 0.3 mm 5 mps 750 mmHg 80%
    02:00 +3°C° 0.3 mm 4 mps 750 mmHg 81%
    03:00 +3°C° 0.3 mm 3 mps 750 mmHg 82%
    04:00 +3°C° 0.1 mm 4 mps 751 mmHg 82%
    05:00 +3°C° 0.1 mm 4 mps 751 mmHg 82%
    06:00 +3°C° 0.1 mm 4 mps 751 mmHg 82%
    07:00 +3°C° 0.1 mm 4 mps 752 mmHg 81%
    08:00 +3°C° 0.1 mm 4 mps 752 mmHg 80%
    09:00 +3°C° 0.1 mm 4 mps 753 mmHg 79%
    10:00 +3°C° 0.1 mm 5 mps 753 mmHg 74%
    11:00 +5°C° 0.1 mm 5 mps 754 mmHg 69%
    12:00 +4°C° 0.1 mm 6 mps 754 mmHg 63%
    13:00 +5°C° 0.1 mm 5 mps 754 mmHg 64%
    14:00 +5°C° 0.1 mm 5 mps 754 mmHg 65%
    15:00 +3°C° 0.1 mm 5 mps 754 mmHg 66%
    16:00 +3°C° 0 mm 4 mps 755 mmHg 69%
    17:00 +2°C° 0 mm 3 mps 755 mmHg 71%
    18:00 +1°C° 0 mm 3 mps 755 mmHg 74%
    19:00 +2°C° 0 mm 2 mps 756 mmHg 75%
    20:00 +2°C° 0 mm 2 mps 756 mmHg 76%
    21:00 +1°C° 0 mm 2 mps 756 mmHg 77%
    22:00 +1°C° 0 mm 2 mps 757 mmHg 78%
    23:00 +1°C° 0 mm 2 mps 757 mmHg 79%
    Show more